Weather History for Imperial, NE

Change the Weather History Date:

Tuesday, March 13, 2012

  Actual Average Record
Temperature  
Mean Temperature 53 °F 39 °F  
Max Temperature 77 °F 53 °F 79 °F (2007)
Min Temperature 28 °F 25 °F -6 °F (1895)
Degree Days  
Heating Degree Days 12 26  
Month to date heating degree days 286 360  
Cooling Degree Days 0 0  
Month to date cooling degree days 0 0  
Year to date cooling degree days 0 0  
Growing Degree Days 2 (Base 50)    
Moisture  
Dew Point 19 °F    
Average Humidity 39    
Maximum Humidity 69    
Minimum Humidity 9    
Precipitation  
Precipitation 0.00 in 0.03 in 0.48 in (1973)
Sea Level Pressure  
Sea Level Pressure 29.82 in    
Wind  
Wind Speed 6 mph (SW)    
Max Wind Speed 18 mph    
Max Gust Speed 24 mph    
Visibility 10 miles    
Events      
T = Trace of Precipitation, MM = Missing Value Source: NWS Daily Summary

Daily Weather History Graph

Daily Weather History Graph

Search for Another Location

Airport:

Trip Planner

Search our weather history database for the weather conditions in past years. The results will help you decide how hot, cold, wet, or windy it might be!

Date:

Astronomy

Mar. 13, 2012 Rise Set
Actual Time 7:00 AM MDT 6:51 PM MDT
Civil Twilight 6:33 AM MDT 7:18 PM MDT
Nautical Twilight 6:01 AM MDT 7:50 PM MDT
Astronomical Twilight 5:29 AM MDT 8:22 PM MDT
Moon 12:27 AM MDT (3/13) 10:13 AM MDT (3/13)
Length of Visible Light 12h 45m
Length of Day
11h 51m
Waning Gibbous, 65% of the Moon is Illuminated
Mar 13
Waning Gibbous
Mar 14
Last Quarter
Mar 22
New
Mar 30
First Quarter
Apr 6
Full

Hourly Weather History & Observations

Time (MDT) Temp. Windchill Dew Point Humidity Pressure Visibility Wind Dir Wind Speed Gust Speed Precip Events Conditions
12:53 AM 39.9 °F 37.8 °F 18.0 °F 41% 29.90 in 10.0 mi South 3.5 mph - N/A   Clear
1:53 AM 42.1 °F 38.4 °F 19.9 °F 41% 29.89 in 10.0 mi South 5.8 mph - N/A   Clear
2:53 AM 39.0 °F - 19.0 °F 45% 29.89 in 10.0 mi Calm Calm - N/A   Clear
3:53 AM 35.1 °F 32.2 °F 19.9 °F 54% 29.88 in 10.0 mi WNW 3.5 mph - N/A   Clear
4:53 AM 33.1 °F - 19.0 °F 56% 29.88 in 10.0 mi Calm Calm - N/A   Clear
5:53 AM 33.1 °F 30.0 °F 19.9 °F 59% 29.89 in 10.0 mi West 3.5 mph - N/A   Clear
6:53 AM 28.9 °F - 19.0 °F 67% 29.91 in 10.0 mi Calm Calm - N/A   Clear
7:53 AM 30.9 °F 27.5 °F 21.0 °F 67% 29.94 in 10.0 mi West 3.5 mph - N/A   Clear
8:53 AM 42.1 °F 37.1 °F 23.0 °F 47% 29.92 in 10.0 mi West 8.1 mph - N/A   Unknown
9:53 AM 51.1 °F - 25.0 °F 36% 29.89 in 10.0 mi WNW 9.2 mph - N/A   Clear
10:53 AM 57.0 °F - 24.1 °F 28% 29.87 in 10.0 mi Calm Calm - N/A   Clear
11:53 AM 62.1 °F - 25.0 °F 24% 29.84 in 10.0 mi Calm Calm - N/A   Clear
12:53 PM 66.9 °F - 25.0 °F 21% 29.82 in 10.0 mi Variable 3.5 mph - N/A   Clear
1:53 PM 71.1 °F - 24.1 °F 17% 29.77 in 10.0 mi South 6.9 mph - N/A   Clear
2:53 PM 75.0 °F - 18.0 °F 12% 29.73 in 10.0 mi SW 10.4 mph - N/A   Clear
3:53 PM 77.0 °F - 15.1 °F 10% 29.72 in 10.0 mi SW 13.8 mph - N/A   Clear
4:53 PM 75.0 °F - 15.1 °F 10% 29.72 in 10.0 mi WSW 13.8 mph - N/A   Clear
5:53 PM 73.0 °F - 18.0 °F 12% 29.71 in 10.0 mi SW 6.9 mph - N/A   Clear
6:53 PM 62.1 °F - 12.9 °F 15% 29.74 in 7.0 mi South 6.9 mph - N/A   Clear
7:53 PM 53.1 °F - 12.9 °F 20% 29.77 in 10.0 mi South 5.8 mph - N/A   Clear
8:53 PM 51.1 °F - 14.0 °F 23% 29.75 in 10.0 mi SE 6.9 mph - N/A   Clear
9:53 PM 48.0 °F - 14.0 °F 26% 29.75 in 10.0 mi Calm Calm - N/A   Clear
10:53 PM 46.9 °F - 14.0 °F 27% 29.74 in 10.0 mi SSE 5.8 mph - N/A   Clear
11:53 PM 48.0 °F - 17.1 °F 29% 29.72 in 10.0 mi SSW 4.6 mph - N/A   Clear